QPF
0.07 0.09 0.09 0.08 0.08 0.07 0.05 0.06 0.05 0.05 0.05 0.07 0.08 0.08 0.07 0.08 0.09 0.08 0.07 0.05 0.03 0.04 0.05 0.06 0.07 0.06 0.06 0.05 0.05 0.05 0.04 0.04 0.04 0.04 0.04 0.04 0.04 0.05 0.04 0.04 0.03 0.02 0.02
0.05 0.04 0.05 0.05 0.06 0.06 0.05 0.05 0.05 0.07 0.06 0.06 0.06 0.06 0.05 0.05 0.05 0.03 0.05 0.06 0.05 0.05 0.07 0.08 0.08 0.06 0.05 0.05 0.05 0.05 0.05 0.05 0.06 0.04 0.03 0.03 0.04 0.05 0.05 0.04 0.03 0.03 0.02
0.04 0.04 0.04 0.04 0.05 0.05 0.06 0.06 0.07 0.09 0.08 0.07 0.06 0.04 0.02 0.03 0.07 0.08 0.06 0.06 0.06 0.05 0.05 0.06 0.06 0.04 0.03 0.04 0.05 0.07 0.08 0.07 0.05 0.04 0.03 0.03 0.03 0.04 0.04 0.04 0.03 0.03 0.02
0.05 0.04 0.04 0.04 0.05 0.04 0.05 0.07 0.08 0.08 0.10 0.09 0.06 0.05 0.04 0.04 0.08 0.16 0.12 0.06 0.06 0.06 0.05 0.06 0.05 0.04 0.03 0.02 0.03 0.04 0.04 0.05 0.05 0.05 0.05 0.05 0.05 0.05 0.04 0.04 0.05 0.04 0.03
0.03 0.04 0.05 0.04 0.03 0.03 0.03 0.05 0.07 0.08 0.09 0.09 0.05 0.05 0.03 0.05 0.07 0.13 0.15 0.10 0.07 0.06 0.06 0.07 0.06 0.05 0.03 0.03 0.03 0.03 0.03 0.03 0.03 0.04 0.05 0.06 0.06 0.07 0.06 0.05 0.06 0.04 0.04
0.03 0.03 0.04 0.04 0.03 0.04 0.04 0.05 0.06 0.08 0.10 0.09 0.05 0.04 0.04 0.04 0.04 0.07 0.14 0.14 0.09 0.05 0.05 0.07 0.08 0.06 0.04 0.04 0.03 0.01 0.02 0.02 0.02 0.03 0.03 0.05 0.06 0.07 0.08 0.06 0.05 0.04 0.05
0.05 0.05 0.05 0.05 0.05 0.06 0.05 0.04 0.05 0.08 0.07 0.06 0.07 0.06 0.05 0.05 0.05 0.06 0.10 0.16 0.14 0.09 0.08 0.15 0.17 0.12 0.07 0.05 0.04 0.03 0.03 0.03 0.03 0.03 0.02 0.03 0.05 0.07 0.07 0.05 0.04 0.05 0.06
0.04 0.05 0.08 0.08 0.07 0.08 0.06 0.07 0.07 0.05 0.05 0.05 0.08 0.07 0.06 0.07 0.06 0.04 0.06 0.10 0.11 0.09 0.08 0.09 0.10 0.12 0.10 0.08 0.08 0.04 0.03 0.03 0.03 0.04 0.03 0.02 0.03 0.04 0.05 0.04 0.04 0.05 0.06
0.02 0.03 0.06 0.08 0.08 0.08 0.08 0.09 0.07 0.06 0.06 0.05 0.07 0.08 0.08 0.08 0.05 0.04 0.04 0.05 0.07 0.09 0.08 0.05 0.04 0.05 0.05 0.07 0.08 0.06 0.04 0.03 0.04 0.04 0.04 0.04 0.04 0.03 0.04 0.04 0.05 0.06 0.08
0.01 0.02 0.04 0.06 0.06 0.06 0.07 0.07 0.08 0.09 0.09 0.08 0.08 0.08 0.08 0.08 0.08 0.05 0.04 0.04 0.05 0.06 0.07 0.05 0.04 0.03 0.03 0.05 0.07 0.06 0.04 0.03 0.04 0.05 0.05 0.06 0.04 0.03 0.04 0.06 0.07 0.10 0.11
0.04 0.03 0.03 0.04 0.05 0.06 0.06 0.08 0.10 0.09 0.10 0.10 0.10 0.09 0.08 0.09 0.09 0.07 0.06 0.04 0.03 0.04 0.04 0.04 0.04 0.04 0.04 0.04 0.06 0.06 0.05 0.04 0.03 0.03 0.04 0.05 0.05 0.04 0.05 0.06 0.08 0.13 0.17
0.06 0.05 0.05 0.05 0.05 0.06 0.06 0.07 0.10 0.08 0.10 0.09 0.08 0.09 0.09 0.08 0.08 0.09 0.08 0.05 0.05 0.03 0.03 0.04 0.05 0.05 0.05 0.05 0.05 0.06 0.05 0.03 0.03 0.02 0.02 0.02 0.03 0.04 0.05 0.07 0.13 0.16 0.16
0.06 0.05 0.06 0.07 0.07 0.08 0.07 0.09 0.10 0.08 0.09 0.07 0.06 0.07 0.07 0.05 0.07 0.08 0.09 0.05 0.04 0.05 0.04 0.05 0.05 0.05 0.05 0.05 0.06 0.06 0.05 0.03 0.02 0.02 0.01 0.01 0.01 0.02 0.05 0.09 0.13 0.13 0.11
0.04 0.04 0.05 0.06 0.07 0.08 0.08 0.11 0.10 0.10 0.09 0.07 0.06 0.06 0.05 0.05 0.06 0.07 0.06 0.06 0.06 0.05 0.06 0.06 0.05 0.04 0.05 0.05 0.07 0.08 0.04 0.03 0.02 0.02 0.01 0.01 0.01 0.03 0.06 0.09 0.09 0.10 0.09
0.05 0.05 0.05 0.06 0.06 0.07 0.07 0.09 0.09 0.09 0.10 0.08 0.07 0.07 0.05 0.05 0.06 0.06 0.07 0.09 0.08 0.06 0.06 0.06 0.05 0.04 0.04 0.05 0.07 0.05 0.04 0.05 0.03 0.02 0.02 0.03 0.04 0.05 0.07 0.08 0.07 0.07 0.06
0.06 0.07 0.05 0.04 0.05 0.06 0.05 0.06 0.06 0.07 0.08 0.09 0.08 0.08 0.07 0.06 0.08 0.08 0.09 0.10 0.11 0.08 0.05 0.04 0.05 0.04 0.04 0.04 0.06 0.04 0.04 0.04 0.03 0.02 0.02 0.03 0.04 0.05 0.05 0.05 0.04 0.04 0.03
0.06 0.06 0.06 0.05 0.04 0.03 0.03 0.04 0.03 0.05 0.08 0.10 0.10 0.10 0.07 0.08 0.10 0.10 0.09 0.10 0.10 0.06 0.04 0.04 0.03 0.04 0.05 0.04 0.05 0.03 0.03 0.04 0.03 0.02 0.02 0.01 0.02 0.02 0.03 0.03 0.02 0.02 0.02
0.04 0.04 0.05 0.05 0.04 0.03 0.03 0.03 0.03 0.04 0.05 0.06 0.09 0.12 0.13 0.11 0.10 0.11 0.11 0.10 0.08 0.06 0.05 0.04 0.04 0.05 0.05 0.04 0.04 0.03 0.02 0.03 0.03 0.03 0.02 0.01 0.01 0.01 0.01 0.02 0.02 0.01 0.01
0.02 0.03 0.04 0.05 0.04 0.04 0.05 0.05 0.04 0.03 0.03 0.05 0.06 0.08 0.10 0.11 0.10 0.10 0.10 0.10 0.09 0.06 0.06 0.05 0.04 0.05 0.05 0.05 0.05 0.04 0.03 0.04 0.03 0.03 0.04 0.03 0.02 0.01 0.01 0.01 0.01 0.02 0.01
0.03 0.03 0.02 0.03 0.03 0.03 0.04 0.04 0.04 0.05 0.05 0.05 0.06 0.07 0.09 0.09 0.09 0.09 0.09 0.10 0.09 0.08 0.07 0.06 0.04 0.04 0.04 0.06 0.07 0.06 0.05 0.05 0.04 0.03 0.04 0.04 0.02 0.02 0.02 0.02 0.02 0.02 0.01
0.04 0.04 0.04 0.03 0.03 0.03 0.02 0.02 0.04 0.05 0.09 0.09 0.07 0.06 0.08 0.09 0.09 0.09 0.08 0.08 0.09 0.09 0.08 0.07 0.05 0.05 0.04 0.05 0.05 0.06 0.07 0.06 0.06 0.05 0.06 0.04 0.03 0.02 0.02 0.01 0.02 0.02 0.02
0.05 0.05 0.04 0.04 0.04 0.02 0.02 0.04 0.05 0.07 0.08 0.09 0.08 0.08 0.07 0.07 0.07 0.06 0.05 0.05 0.08 0.08 0.07 0.06 0.06 0.05 0.05 0.05 0.07 0.08 0.09 0.08 0.06 0.04 0.06 0.06 0.04 0.04 0.03 0.03 0.02 0.03 0.02
0.05 0.05 0.05 0.05 0.05 0.04 0.06 0.06 0.05 0.06 0.06 0.07 0.09 0.08 0.07 0.06 0.06 0.06 0.05 0.05 0.04 0.04 0.05 0.06 0.05 0.05 0.05 0.07 0.08 0.09 0.09 0.09 0.09 0.08 0.09 0.07 0.06 0.06 0.05 0.03 0.03 0.02 0.02
0.03 0.04 0.06 0.07 0.06 0.05 0.06 0.06 0.05 0.05 0.05 0.06 0.09 0.09 0.08 0.06 0.05 0.06 0.08 0.07 0.05 0.04 0.04 0.04 0.04 0.03 0.03 0.05 0.07 0.07 0.08 0.08 0.08 0.09 0.11 0.09 0.07 0.07 0.04 0.03 0.03 0.02 0.02
0.03 0.04 0.06 0.06 0.05 0.05 0.06 0.07 0.07 0.06 0.07 0.09 0.11 0.10 0.09 0.07 0.06 0.04 0.06 0.07 0.06 0.05 0.05 0.05 0.05 0.04 0.04 0.05 0.05 0.07 0.08 0.08 0.06 0.06 0.07 0.06 0.06 0.07 0.06 0.05 0.04 0.04 0.03
0.03 0.04 0.05 0.05 0.04 0.04 0.05 0.05 0.06 0.07 0.06 0.05 0.06 0.09 0.09 0.08 0.06 0.04 0.05 0.07 0.07 0.06 0.06 0.05 0.05 0.05 0.05 0.06 0.06 0.07 0.07 0.07 0.06 0.06 0.07 0.08 0.07 0.08 0.07 0.05 0.05 0.06 0.06
MSLP
1016.58 1016.67 1016.66 1016.58 1016.45 1016.31 1016.18 1016.06 1015.96 1015.84 1015.71 1015.55 1015.37 1015.19 1015.03 1014.92 1014.90 1014.97 1015.14 1015.38 1015.67 1015.98 1016.28 1016.54 1016.77 1016.96 1017.13 1017.29 1017.46 1017.63 1017.82 1018.02 1018.23 1018.42 1018.61 1018.78 1018.92 1019.05 1019.15 1019.22 1019.27 1019.31 1019.32
1016.82 1016.89 1016.87 1016.78 1016.64 1016.49 1016.35 1016.22 1016.10 1015.99 1015.85 1015.69 1015.51 1015.31 1015.11 1014.95 1014.85 1014.82 1014.88 1015.02 1015.22 1015.46 1015.73 1015.99 1016.25 1016.49 1016.72 1016.94 1017.15 1017.36 1017.56 1017.76 1017.96 1018.14 1018.32 1018.49 1018.63 1018.76 1018.87 1018.95 1019.00 1019.03 1019.05
1016.82 1016.91 1016.91 1016.85 1016.75 1016.64 1016.53 1016.44 1016.35 1016.26 1016.14 1015.98 1015.79 1015.56 1015.30 1015.06 1014.85 1014.69 1014.61 1014.61 1014.70 1014.85 1015.06 1015.32 1015.60 1015.90 1016.19 1016.48 1016.75 1017.00 1017.23 1017.44 1017.64 1017.82 1017.99 1018.15 1018.30 1018.43 1018.55 1018.64 1018.70 1018.73 1018.74
1016.57 1016.70 1016.76 1016.77 1016.76 1016.73 1016.70 1016.66 1016.63 1016.57 1016.48 1016.33 1016.13 1015.86 1015.55 1015.22 1014.89 1014.59 1014.36 1014.21 1014.16 1014.21 1014.35 1014.58 1014.87 1015.21 1015.56 1015.90 1016.23 1016.53 1016.79 1017.02 1017.22 1017.40 1017.57 1017.73 1017.88 1018.02 1018.15 1018.25 1018.32 1018.36 1018.38
1016.13 1016.31 1016.44 1016.55 1016.64 1016.71 1016.77 1016.83 1016.85 1016.85 1016.78 1016.65 1016.44 1016.15 1015.79 1015.38 1014.95 1014.53 1014.17 1013.88 1013.69 1013.62 1013.68 1013.85 1014.13 1014.47 1014.85 1015.23 1015.60 1015.93 1016.22 1016.46 1016.67 1016.85 1017.02 1017.18 1017.34 1017.50 1017.64 1017.76 1017.84 1017.90 1017.93
1015.57 1015.79 1016.00 1016.20 1016.39 1016.57 1016.73 1016.86 1016.96 1017.00 1016.97 1016.86 1016.66 1016.37 1015.99 1015.55 1015.05 1014.55 1014.08 1013.67 1013.36 1013.18 1013.14 1013.23 1013.45 1013.76 1014.12 1014.51 1014.88 1015.22 1015.51 1015.76 1015.96 1016.15 1016.32 1016.49 1016.66 1016.83 1016.99 1017.13 1017.24 1017.32 1017.37
1014.98 1015.23 1015.49 1015.77 1016.05 1016.31 1016.54 1016.74 1016.89 1016.98 1016.98 1016.91 1016.74 1016.48 1016.12 1015.69 1015.19 1014.65 1014.13 1013.65 1013.25 1012.96 1012.81 1012.80 1012.92 1013.15 1013.46 1013.79 1014.13 1014.44 1014.71 1014.94 1015.14 1015.31 1015.48 1015.66 1015.85 1016.04 1016.22 1016.39 1016.52 1016.62 1016.69
1014.44 1014.69 1014.98 1015.30 1015.63 1015.95 1016.23 1016.47 1016.65 1016.77 1016.81 1016.78 1016.66 1016.46 1016.17 1015.79 1015.35 1014.84 1014.32 1013.81 1013.35 1012.98 1012.73 1012.60 1012.61 1012.72 1012.91 1013.16 1013.41 1013.66 1013.88 1014.07 1014.24 1014.41 1014.57 1014.76 1014.95 1015.16 1015.37 1015.56 1015.71 1015.83 1015.92
1014.02 1014.24 1014.52 1014.84 1015.18 1015.51 1015.81 1016.06 1016.25 1016.39 1016.46 1016.47 1016.42 1016.30 1016.11 1015.84 1015.49 1015.07 1014.61 1014.12 1013.64 1013.22 1012.87 1012.63 1012.50 1012.48 1012.54 1012.65 1012.80 1012.95 1013.10 1013.24 1013.37 1013.51 1013.66 1013.85 1014.05 1014.27 1014.49 1014.70 1014.87 1015.00 1015.11
1013.73 1013.89 1014.13 1014.42 1014.73 1015.04 1015.32 1015.55 1015.74 1015.87 1015.96 1016.01 1016.02 1016.00 1015.92 1015.78 1015.56 1015.26 1014.89 1014.47 1014.01 1013.57 1013.16 1012.82 1012.57 1012.41 1012.33 1012.31 1012.33 1012.38 1012.44 1012.51 1012.59 1012.70 1012.84 1013.01 1013.21 1013.43 1013.65 1013.87 1014.05 1014.19 1014.30
1013.54 1013.63 1013.80 1014.04 1014.30 1014.57 1014.81 1015.00 1015.15 1015.26 1015.35 1015.42 1015.49 1015.55 1015.58 1015.57 1015.49 1015.32 1015.07 1014.73 1014.33 1013.90 1013.47 1013.07 1012.72 1012.45 1012.25 1012.10 1012.01 1011.96 1011.93 1011.93 1011.96 1012.03 1012.14 1012.28 1012.47 1012.68 1012.90 1013.10 1013.28 1013.42 1013.53
1013.43 1013.44 1013.55 1013.72 1013.92 1014.12 1014.30 1014.45 1014.55 1014.62 1014.69 1014.76 1014.86 1014.96 1015.08 1015.17 1015.21 1015.17 1015.03 1014.80 1014.48 1014.09 1013.67 1013.25 1012.86 1012.52 1012.23 1012.00 1011.82 1011.68 1011.58 1011.52 1011.49 1011.51 1011.58 1011.69 1011.84 1012.02 1012.22 1012.41 1012.57 1012.70 1012.80
1013.37 1013.32 1013.36 1013.47 1013.61 1013.75 1013.87 1013.94 1013.99 1014.01 1014.03 1014.08 1014.16 1014.29 1014.44 1014.59 1014.71 1014.77 1014.74 1014.60 1014.37 1014.05 1013.68 1013.29 1012.89 1012.53 1012.21 1011.93 1011.70 1011.50 1011.34 1011.22 1011.14 1011.10 1011.12 1011.18 1011.29 1011.43 1011.59 1011.75 1011.89 1012.01 1012.10
1013.37 1013.27 1013.26 1013.32 1013.41 1013.49 1013.54 1013.56 1013.53 1013.49 1013.45 1013.44 1013.48 1013.58 1013.73 1013.90 1014.06 1014.17 1014.21 1014.16 1014.01 1013.77 1013.47 1013.13 1012.78 1012.44 1012.12 1011.83 1011.58 1011.35 1011.15 1010.98 1010.84 1010.74 1010.69 1010.69 1010.73 1010.82 1010.94 1011.07 1011.20 1011.30 1011.39
1013.44 1013.33 1013.29 1013.32 1013.36 1013.40 1013.40 1013.35 1013.26 1013.14 1013.02 1012.94 1012.91 1012.95 1013.05 1013.19 1013.34 1013.47 1013.54 1013.55 1013.46 1013.30 1013.08 1012.81 1012.52 1012.23 1011.95 1011.68 1011.42 1011.18 1010.94 1010.72 1010.53 1010.36 1010.23 1010.15 1010.12 1010.15 1010.22 1010.31 1010.42 1010.52 1010.61
1013.64 1013.53 1013.49 1013.50 1013.52 1013.52 1013.47 1013.37 1013.21 1013.02 1012.83 1012.66 1012.55 1012.50 1012.52 1012.60 1012.71 1012.81 1012.89 1012.91 1012.87 1012.76 1012.60 1012.40 1012.17 1011.94 1011.69 1011.45 1011.20 1010.95 1010.68 1010.41 1010.15 1009.90 1009.68 1009.52 1009.41 1009.37 1009.38 1009.44 1009.53 1009.64 1009.75
1014.00 1013.91 1013.89 1013.89 1013.89 1013.86 1013.78 1013.64 1013.43 1013.17 1012.91 1012.66 1012.46 1012.33 1012.26 1012.26 1012.30 1012.35 1012.39 1012.40 1012.37 1012.29 1012.16 1012.00 1011.82 1011.62 1011.41 1011.18 1010.93 1010.66 1010.36 1010.03 1009.70 1009.36 1009.06 1008.80 1008.60 1008.47 1008.43 1008.45 1008.53 1008.65 1008.79
1014.52 1014.46 1014.45 1014.46 1014.45 1014.41 1014.30 1014.12 1013.87 1013.57 1013.25 1012.94 1012.67 1012.46 1012.32 1012.23 1012.20 1012.19 1012.18 1012.15 1012.09 1011.99 1011.87 1011.72 1011.54 1011.35 1011.15 1010.92 1010.65 1010.35 1010.01 1009.63 1009.22 1008.80 1008.40 1008.04 1007.74 1007.53 1007.41 1007.39 1007.45 1007.58 1007.74
1015.14 1015.12 1015.13 1015.14 1015.13 1015.06 1014.93 1014.73 1014.45 1014.13 1013.78 1013.43 1013.12 1012.86 1012.66 1012.52 1012.42 1012.34 1012.27 1012.18 1012.07 1011.94 1011.78 1011.60 1011.40 1011.19 1010.96 1010.71 1010.42 1010.09 1009.71 1009.27 1008.79 1008.29 1007.79 1007.33 1006.93 1006.62 1006.42 1006.33 1006.35 1006.46 1006.65
1015.80 1015.81 1015.83 1015.84 1015.81 1015.73 1015.58 1015.36 1015.08 1014.74 1014.38 1014.03 1013.71 1013.43 1013.20 1013.02 1012.88 1012.75 1012.62 1012.47 1012.30 1012.10 1011.88 1011.65 1011.40 1011.15 1010.89 1010.60 1010.29 1009.92 1009.50 1009.02 1008.48 1007.91 1007.32 1006.76 1006.26 1005.84 1005.53 1005.35 1005.30 1005.37 1005.54
1016.38 1016.40 1016.42 1016.43 1016.39 1016.29 1016.13 1015.90 1015.62 1015.29 1014.95 1014.61 1014.31 1014.04 1013.81 1013.62 1013.45 1013.29 1013.11 1012.91 1012.68 1012.41 1012.13 1011.83 1011.53 1011.23 1010.92 1010.61 1010.27 1009.88 1009.44 1008.93 1008.36 1007.73 1007.07 1006.41 1005.79 1005.24 1004.80 1004.50 1004.34 1004.33 1004.44
1016.80 1016.82 1016.84 1016.82 1016.77 1016.66 1016.49 1016.26 1015.98 1015.68 1015.36 1015.06 1014.79 1014.55 1014.35 1014.17 1014.00 1013.82 1013.62 1013.37 1013.08 1012.76 1012.42 1012.06 1011.71 1011.37 1011.04 1010.70 1010.36 1009.98 1009.54 1009.03 1008.44 1007.77 1007.04 1006.29 1005.55 1004.86 1004.27 1003.81 1003.51 1003.37 1003.38
1017.01 1017.02 1017.02 1016.99 1016.91 1016.79 1016.61 1016.39 1016.13 1015.85 1015.58 1015.32 1015.09 1014.89 1014.72 1014.57 1014.41 1014.22 1014.00 1013.73 1013.41 1013.05 1012.66 1012.27 1011.88 1011.52 1011.18 1010.86 1010.53 1010.18 1009.77 1009.28 1008.69 1008.00 1007.22 1006.38 1005.51 1004.68 1003.91 1003.27 1002.79 1002.49 1002.37
1017.00 1016.99 1016.97 1016.92 1016.84 1016.71 1016.54 1016.33 1016.09 1015.84 1015.60 1015.38 1015.19 1015.03 1014.89 1014.75 1014.61 1014.43 1014.20 1013.91 1013.58 1013.20 1012.79 1012.38 1011.99 1011.63 1011.31 1011.02 1010.73 1010.43 1010.06 1009.61 1009.04 1008.34 1007.52 1006.60 1005.62 1004.63 1003.69 1002.86 1002.18 1001.70 1001.42
1016.82 1016.80 1016.76 1016.71 1016.62 1016.50 1016.34 1016.15 1015.94 1015.72 1015.51 1015.32 1015.16 1015.01 1014.89 1014.76 1014.61 1014.43 1014.20 1013.91 1013.57 1013.18 1012.78 1012.38 1012.00 1011.67 1011.38 1011.14 1010.90 1010.66 1010.35 1009.95 1009.41 1008.71 1007.86 1006.88 1005.79 1004.67 1003.56 1002.54 1001.68 1001.01 1000.58
1016.55 1016.51 1016.48 1016.42 1016.35 1016.25 1016.12 1015.96 1015.78 1015.59 1015.41 1015.23 1015.07 1014.92 1014.79 1014.65 1014.49 1014.29 1014.05 1013.75 1013.41 1013.03 1012.64 1012.26 1011.91 1011.62 1011.38 1011.18 1011.01 1010.82 1010.57 1010.21 1009.71 1009.03 1008.16 1007.13 1005.97 1004.74 1003.49 1002.33 1001.30 1000.48 999.90
Thickness
5777 5777 5776 5776 5776 5777 5776 5776 5776 5776 5776 5776 5776 5777 5776 5775 5773 5771 5767 5765 5764 5763 5761 5760 5758 5757 5756 5754 5753 5751 5748 5747 5745 5743 5741 5740 5738 5737 5735 5734 5732 5730 5728
5777 5777 5776 5776 5776 5777 5777 5776 5776 5776 5776 5776 5776 5776 5776 5775 5772 5770 5767 5765 5764 5763 5762 5760 5759 5757 5756 5755 5753 5751 5749 5747 5745 5743 5742 5740 5738 5737 5735 5733 5732 5730 5728
5777 5776 5776 5776 5776 5777 5777 5777 5776 5776 5775 5775 5775 5775 5775 5774 5773 5771 5768 5766 5766 5764 5762 5761 5759 5758 5756 5755 5753 5751 5749 5747 5745 5744 5742 5740 5739 5737 5735 5733 5731 5730 5728
5777 5776 5776 5776 5776 5777 5777 5776 5775 5774 5773 5772 5773 5773 5774 5773 5773 5772 5771 5770 5768 5766 5763 5761 5760 5758 5756 5755 5753 5751 5750 5748 5746 5744 5742 5740 5739 5737 5735 5732 5731 5729 5727
5776 5776 5775 5776 5777 5777 5776 5776 5774 5772 5770 5770 5771 5772 5773 5772 5772 5773 5772 5772 5770 5768 5765 5762 5760 5758 5756 5754 5753 5751 5749 5748 5746 5744 5742 5740 5738 5737 5734 5732 5730 5728 5727
5776 5775 5775 5775 5776 5775 5774 5773 5771 5771 5770 5769 5770 5770 5771 5772 5772 5772 5771 5771 5770 5768 5765 5762 5759 5757 5756 5754 5752 5751 5749 5747 5746 5744 5742 5740 5739 5736 5734 5732 5730 5728 5726
5775 5774 5775 5774 5774 5772 5772 5771 5770 5768 5767 5768 5764 5762 5766 5770 5771 5771 5771 5769 5768 5767 5765 5761 5759 5757 5755 5753 5751 5750 5748 5747 5745 5744 5742 5740 5738 5736 5734 5732 5730 5728 5726
5775 5775 5772 5772 5772 5771 5770 5769 5767 5765 5764 5766 5760 5754 5752 5757 5764 5769 5768 5766 5765 5765 5763 5761 5759 5758 5756 5752 5749 5748 5747 5745 5744 5743 5741 5740 5738 5735 5733 5731 5729 5727 5726
5773 5773 5772 5771 5771 5770 5768 5767 5766 5763 5760 5763 5763 5756 5748 5745 5752 5760 5763 5763 5762 5761 5761 5760 5759 5757 5755 5753 5750 5747 5745 5744 5742 5742 5740 5739 5737 5735 5733 5731 5729 5727 5725
5772 5772 5771 5771 5769 5769 5767 5767 5767 5764 5762 5759 5760 5761 5759 5757 5749 5746 5754 5758 5759 5759 5758 5758 5757 5755 5754 5751 5749 5746 5744 5742 5741 5740 5738 5737 5735 5734 5732 5730 5728 5726 5724
5771 5771 5770 5769 5768 5767 5766 5766 5765 5763 5762 5759 5758 5757 5757 5756 5754 5746 5742 5748 5752 5755 5756 5756 5755 5754 5751 5749 5747 5744 5742 5740 5739 5738 5736 5734 5733 5732 5730 5728 5726 5724 5723
5769 5769 5768 5767 5766 5765 5764 5764 5763 5762 5760 5759 5758 5756 5754 5750 5748 5746 5741 5741 5742 5748 5752 5753 5752 5750 5749 5746 5744 5742 5739 5737 5736 5735 5733 5732 5730 5729 5727 5725 5724 5722 5720
5764 5765 5765 5764 5763 5762 5762 5762 5760 5759 5758 5756 5755 5754 5754 5753 5752 5748 5743 5740 5739 5742 5745 5747 5749 5748 5746 5743 5740 5738 5735 5733 5732 5732 5730 5728 5726 5725 5723 5722 5720 5718 5717
5763 5764 5763 5762 5760 5759 5760 5759 5758 5756 5755 5754 5753 5752 5751 5751 5751 5748 5743 5738 5732 5734 5736 5739 5744 5744 5742 5739 5736 5733 5731 5729 5728 5727 5726 5724 5723 5721 5719 5717 5716 5714 5712
5762 5761 5760 5759 5757 5756 5755 5755 5753 5752 5751 5751 5750 5749 5748 5748 5748 5747 5744 5740 5732 5724 5726 5732 5735 5739 5738 5736 5733 5730 5728 5726 5724 5722 5721 5720 5718 5716 5714 5713 5711 5709 5707
5758 5757 5756 5755 5754 5752 5751 5750 5749 5749 5747 5747 5746 5744 5744 5744 5743 5743 5741 5739 5736 5728 5723 5728 5731 5734 5734 5732 5729 5726 5724 5722 5720 5718 5717 5715 5713 5712 5710 5708 5706 5705 5703
5754 5752 5752 5750 5749 5748 5747 5746 5744 5744 5742 5741 5741 5740 5739 5739 5737 5737 5737 5734 5731 5728 5721 5724 5727 5729 5728 5726 5724 5722 5720 5718 5716 5715 5713 5711 5709 5707 5706 5704 5702 5701 5699
5750 5749 5748 5746 5745 5744 5743 5741 5739 5739 5738 5736 5736 5734 5734 5735 5733 5732 5730 5728 5726 5726 5721 5717 5719 5720 5720 5720 5719 5717 5716 5715 5713 5711 5710 5708 5706 5704 5702 5700 5698 5697 5695
5745 5745 5743 5741 5740 5739 5738 5736 5735 5734 5733 5732 5732 5730 5729 5729 5727 5726 5724 5723 5722 5722 5719 5715 5714 5715 5714 5715 5713 5712 5711 5709 5709 5707 5705 5704 5702 5700 5697 5695 5694 5692 5690
5741 5740 5738 5737 5736 5734 5733 5731 5730 5729 5729 5728 5728 5727 5726 5725 5723 5721 5720 5718 5717 5715 5713 5711 5709 5709 5708 5708 5706 5703 5702 5702 5702 5701 5700 5698 5697 5695 5692 5691 5689 5688 5686
5737 5735 5733 5732 5731 5729 5728 5725 5724 5724 5723 5722 5722 5722 5722 5722 5720 5718 5717 5715 5712 5710 5707 5705 5703 5702 5701 5699 5697 5697 5695 5694 5694 5694 5692 5692 5690 5689 5686 5685 5684 5683 5681
5731 5730 5728 5726 5725 5724 5721 5720 5718 5717 5717 5716 5716 5716 5717 5716 5715 5713 5713 5711 5709 5706 5702 5700 5698 5696 5695 5694 5693 5690 5687 5685 5683 5688 5685 5684 5684 5683 5682 5681 5680 5679 5677
5726 5724 5722 5721 5718 5716 5715 5714 5713 5712 5711 5710 5710 5710 5711 5712 5710 5709 5708 5707 5706 5704 5702 5698 5695 5693 5692 5691 5688 5684 5682 5680 5679 5682 5679 5677 5679 5677 5678 5677 5677 5675 5674
5720 5718 5716 5715 5713 5711 5709 5708 5707 5706 5705 5705 5705 5704 5704 5703 5703 5702 5702 5701 5700 5699 5699 5697 5694 5692 5691 5689 5685 5682 5679 5677 5677 5677 5675 5670 5672 5672 5674 5673 5673 5672 5671
5713 5712 5710 5708 5707 5705 5703 5701 5700 5699 5698 5699 5699 5699 5698 5697 5696 5695 5695 5693 5693 5693 5693 5692 5690 5688 5686 5684 5681 5676 5672 5669 5667 5668 5669 5666 5666 5666 5667 5668 5668 5668 5666
5708 5706 5704 5703 5701 5699 5696 5694 5692 5692 5691 5691 5692 5692 5691 5690 5689 5688 5687 5687 5685 5685 5685 5685 5683 5682 5680 5678 5675 5671 5668 5663 5661 5660 5663 5661 5660 5659 5657 5661 5663 5662 5660